Tracking 30258 objects as of 19-Feb-2025
HD Live streaming from Space Station
objects crossing your sky now

ONEWEB-0299

Track ONEWEB-0299 now!
10-day predictions
ONEWEB-0299 is classified as:


NORAD ID: 49088
Int'l Code: 2021-075P
Perigee: 1,199.6 km
Apogee: 1,202.1 km
Inclination: 87.9 °
Period: 109.3 minutes
Semi major axis: 7571 km
RCS: Unknown
Launch date: August 21, 2021
Source: United Kingdom (UK)
Launch site: TYURATAM MISSILE AND SPACE COMPLEX (TTMTR)
Your satellite tracking list
Your tracking list is empty




NASA's NSSDC Master Catalog

Two Line Element Set (TLE):
1 49088U 21075P   25050.61928569  .00000009  00000-0 -99399-5 0  9996
2 49088  87.9036 101.9824 0001635  98.3594 261.7723 13.17646790170057
Source of the keplerian elements: AFSPC